This is the latest recevied weather packets stored in our database for station/object W5TUX. If no packets are shown the sender has not sent any weather packets the latest 1 day(s).
| Time | Temp. | Humidity | Pressure | Rain* | Wind** | Luminosity | Snow |
|---|---|---|---|---|---|---|---|
| 1778041396 | 16.67° C | 79% | 1014.6 hPa | 0 mm | 0 m/s | 0 W/m² | - |
| 1778041095 | 16.67° C | 79% | 1014.9 hPa | 0 mm | 1.34 m/s, 332° | 0 W/m² | - |
| 1778040791 | 16.67° C | 78% | 1014.6 hPa | 0 mm | 0.89 m/s, 3° | 0 W/m² | - |
| 1778040488 | 17.22° C | 78% | 1014.7 hPa | 0 mm | 0.89 m/s, 336° | 0 W/m² | - |
| 1778040185 | 16.67° C | 78% | 1014.4 hPa | 0 mm | 1.34 m/s, 304° | 0 W/m² | - |
| 1778039882 | 17.22° C | 79% | 1014.2 hPa | 0 mm | 0 m/s | 0 W/m² | - |
| 1778039579 | 17.22° C | 79% | 1014.4 hPa | 0 mm | 0 m/s | 0 W/m² | - |
| 1778039276 | 17.22° C | 78% | 1014.3 hPa | 0 mm | 0.89 m/s, 340° | 0 W/m² | - |
| 1778038973 | 17.22° C | 78% | 1014.2 hPa | 0 mm | 1.34 m/s, 260° | 0 W/m² | - |
| 1778038670 | 17.78° C | 78% | 1014.1 hPa | 0 mm | 0 m/s | 0 W/m² | - |
| 1778038367 | 17.78° C | 78% | 1014.2 hPa | 0 mm | 0.89 m/s, 243° | 0 W/m² | - |
| 1778038064 | 17.78° C | 77% | 1014.3 hPa | 0 mm | 0.89 m/s, 280° | 0 W/m² | - |
| 1778037761 | 18.33° C | 77% | 1014 hPa | 0 mm | 0.89 m/s, 313° | 0 W/m² | - |
| 1778037457 | 18.33° C | 76% | 1014 hPa | 0 mm | 0.89 m/s, 249° | 0 W/m² | - |
| 1778037155 | 18.89° C | 76% | 1013.7 hPa | 0 mm | 0.45 m/s, 219° | 0 W/m² | - |
| 1778036853 | 18.89° C | 76% | 1013.7 hPa | 0 mm | 0.89 m/s, 7° | 0 W/m² | - |
| 1778036551 | 19.44° C | 75% | 1013.6 hPa | 0 mm | 0 m/s | 0 W/m² | - |
| 1778036247 | 19.44° C | 76% | 1013.5 hPa | 0 mm | 0 m/s | 0 W/m² | - |
| 1778035943 | 20° C | 75% | 1013.4 hPa | 0 mm | 0.89 m/s, 286° | 0 W/m² | - |
| 1778035640 | 20° C | 75% | 1013.2 hPa | 0 mm | 0.45 m/s, 294° | 0 W/m² | - |
| 1778035337 | 20° C | 74% | 1013 hPa | 0 mm | 0.89 m/s, 291° | 0 W/m² | - |
| 1778035033 | 20.56° C | 74% | 1013 hPa | 0 mm | 0.89 m/s, 38° | 0 W/m² | - |
| 1778034731 | 20.56° C | 73% | 1012.5 hPa | 0 mm | 0.45 m/s, 290° | 0 W/m² | - |
| 1778034427 | 20.56° C | 73% | 1012.4 hPa | 0 mm | 0.45 m/s, 229° | 0 W/m² | - |
| 1778034125 | 20.56° C | 74% | 1012.2 hPa | 0 mm | 0 m/s | 0 W/m² | - |
* Rain latest hour (hover to see other rain measurements)
** Current wind speed in m/s (hover to see current wind gust speed)